EDT,Max TemperatureF,Mean TemperatureF,Min TemperatureF,Max Dew PointF,MeanDew PointF,Min DewpointF,Max Humidity, Mean Humidity, Min Humidity, Max Sea Level PressureIn, Mean Sea Level PressureIn, Min Sea Level PressureIn, Max VisibilityMiles, Mean VisibilityMiles, Min VisibilityMiles, Max Wind SpeedMPH, Mean Wind SpeedMPH, Max Gust SpeedMPH,PrecipitationIn, CloudCover, Events, WindDirDegrees
2012-10-1,68,57,48,62,54,49,100,80,58,29.98,29.94,29.89,10,10,8,8,3,,0.00,3,,295
2012-10-2,77,72,68,74,69,63,100,93,83,29.96,29.94,29.91,10,7,1,12,7,21,0.00,8,Rain,150
2012-10-3,81,76,71,75,73,72,100,93,79,30.13,30.05,29.96,10,7,2,9,5,,0.00,4,,217
2012-10-4,84,75,66,74,70,62,100,87,54,30.14,30.11,30.07,10,7,0,9,2,,0.00,3,Fog,273
2012-10-5,80,68,61,65,62,58,100,83,54,30.12,30.07,30.00,10,8,5,9,4,,0.00,0,,277
2012-10-6,81,70,60,67,61,45,93,76,57,30.01,29.92,29.83,10,10,9,16,8,40,0.00,2,,259
2012-10-7,59,54,48,54,49,44,100,90,62,30.14,30.06,30.00,10,7,2,14,9,23,0.00,8,Rain,355
2012-10-8,57,50,44,53,48,43,97,88,72,30.27,30.20,30.13,10,9,3,16,8,23,0.00,5,Rain,13
2012-10-9,63,58,55,61,58,53,100,97,83,30.12,30.07,30.03,10,6,2,14,9,20,0.00,8,Rain,355
2012-10-10,69,62,55,61,57,51,100,90,59,30.04,29.98,29.89,10,5,0,9,5,20,0.00,6,Fog,295
2012-10-11,62,52,42,43,40,37,93,68,41,30.28,30.20,30.07,10,10,10,12,6,,0.00,0,,306
2012-10-12,69,54,39,51,41,34,100,66,36,30.41,30.21,30.14,10,10,10,16,5,25,0.00,0,,319
2012-10-13,57,48,39,46,38,26,77,58,42,30.49,30.44,30.38,10,10,10,14,8,22,0.00,0,,65
2012-10-14,71,58,46,62,57,47,100,84,68,30.32,30.19,30.02,10,10,3,10,6,17,0.00,0,,217
2012-10-15,75,65,57,63,60,55,100,86,62,29.99,29.80,29.69,10,8,2,16,10,26,0.00,4,Rain,238
2012-10-16,64,54,43,57,46,42,97,75,48,29.94,29.85,29.75,10,10,10,16,7,24,0.00,0,,317
2012-10-17,63,52,41,50,44,40,100,78,50,30.03,29.98,29.93,10,10,8,6,2,,0.00,0,,196
2012-10-18,68,56,45,65,56,45,100,80,63,30.01,29.95,29.86,10,9,1,10,5,,0.00,4,,141
2012-10-19,71,68,66,67,66,64,100,95,87,29.86,29.75,29.68,10,8,2,9,7,23,0.10,7,Rain,180
2012-10-20,68,59,52,59,52,48,93,75,57,29.90,29.78,29.71,10,10,10,8,6,,0.00,0,,258
2012-10-21,66,56,46,46,44,42,86,67,45,30.11,30.04,29.90,10,10,10,12,7,,0.00,0,,313
2012-10-22,69,56,45,47,44,42,90,68,40,30.19,30.13,30.10,10,10,10,9,5,16,0.00,0,,299
2012-10-23,75,62,51,60,54,48,89,74,48,30.17,30.12,30.08,10,10,10,10,6,17,0.00,0,,240
2012-10-24,72,65,59,63,58,54,100,82,61,30.15,30.11,30.07,10,9,7,8,6,,0.00,1,,148
2012-10-25,66,64,62,63,60,59,94,88,81,30.23,30.19,30.15,10,10,9,9,7,,0.00,8,,74
2012-10-26,70,66,62,63,62,59,100,89,78,30.17,30.12,30.04,10,10,10,12,7,,0.00,0,,67
2012-10-27,66,63,60,60,58,57,88,83,75,30.02,29.87,29.79,10,10,10,18,13,30,0.01,4,Rain,51
2012-10-28,62,60,57,59,58,55,100,92,81,29.77,29.57,29.40,10,4,1,31,21,51,1.79,8,Rain,34
2012-10-29,57,52,46,56,52,45,100,98,93,29.38,28.93,28.44,10,3,1,36,26,58,5.15,8,Rain,325
2012-10-30,46,45,44,44,41,38,93,84,76,29.52,29.30,28.95,10,10,9,28,19,40,0.11,8,Rain,228
2012-10-31,55,48,43,43,40,37,93,75,55,29.66,29.59,29.50,10,10,10,14,6,,0.00,4,,248